Weather History for Morris, MN

Change the Weather History Date:

Wednesday, June 26, 2013

  Actual Average Record
Temperature  
Mean Temperature 76 °F -  
Max Temperature 87 °F 76 °F 87 °F (2005)
Min Temperature 66 °F 55 °F 44 °F (2004)
Cooling Degree Days 12    
Growing Degree Days 26 (Base 50)    
Moisture  
Dew Point 66 °F    
Average Humidity 71    
Maximum Humidity 94    
Minimum Humidity 40    
Precipitation  
Precipitation 0.01 in - - ()
Sea Level Pressure  
Sea Level Pressure 29.74 in    
Wind  
Wind Speed 10 mph (West)    
Max Wind Speed 22 mph    
Max Gust Speed 34 mph    
Visibility 10 miles    
Events Rain , Thunderstorm    
Averages and records for this station are not official NWS values.
T = Trace of Precipitation, MM = Missing Value Source: NWS Daily Summary

Daily Weather History Graph

Daily Weather History Graph

Search for Another Location

Airport:

Trip Planner

Search our weather history database for the weather conditions in past years. The results will help you decide how hot, cold, wet, or windy it might be!

Date:

Astronomy

Jun. 26, 2013 Rise Set
Actual Time 5:36 AM CDT 9:17 PM CDT
Civil Twilight 4:58 AM CDT 9:54 PM CDT
Nautical Twilight 4:07 AM CDT 10:45 PM CDT
Astronomical Twilight 2:58 AM CDT 11:54 PM CDT
Moon 11:26 PM CDT (6/26) 9:41 AM CDT (6/26)
Length of Visible Light 16h 56m
Length of Day
15h 40m
Waning Gibbous, 85% of the Moon is Illuminated
Jun 26
Waning Gibbous
Jun 29
Last Quarter
Jul 8
New
Jul 15
First Quarter
Jul 22
Full

Hourly Weather History & Observations

Time (CDT) Temp. Heat Index Dew Point Humidity Pressure Visibility Wind Dir Wind Speed Gust Speed Precip Events Conditions
12:10 AM 75.2 °F - 71.6 °F 89% 29.67 in 10.0 mi SE 9.2 mph - N/A   Clear
12:30 AM 75.2 °F - 71.6 °F 89% 29.66 in 10.0 mi SSE 9.2 mph - N/A   Clear
12:50 AM 75.2 °F - 71.6 °F 89% 29.66 in 10.0 mi SSE 10.4 mph - N/A   Clear
1:10 AM 75.2 °F - 71.6 °F 89% 29.67 in 10.0 mi South 8.1 mph - N/A   Clear
1:30 AM 75.2 °F - 71.6 °F 89% 29.66 in 10.0 mi South 9.2 mph - N/A   Clear
1:50 AM 73.4 °F - 71.6 °F 94% 29.68 in 10.0 mi SW 5.8 mph - N/A   Clear
2:10 AM 75.2 °F - 62.6 °F 65% 29.70 in 10.0 mi West 21.9 mph 34.5 mph N/A   Mostly Cloudy
2:30 AM 73.4 °F - 60.8 °F 65% 29.68 in 10.0 mi West 19.6 mph 28.8 mph N/A   Overcast
2:37 AM 71.6 °F - 60.8 °F 69% 29.69 in 10.0 mi WSW 11.5 mph - N/A   Overcast
2:38 AM 69.8 °F - 60.8 °F 73% 29.68 in 10.0 mi West 11.5 mph - N/A Rain Light Rain
3:26 AM 68.0 °F - - N/A% 29.64 in - Calm Calm - N/A   Unknown
3:30 AM 68.0 °F - 64.4 °F 88% 29.64 in 10.0 mi WNW 4.6 mph - N/A   Unknown
3:50 AM 68.0 °F - 64.4 °F 88% 29.66 in 10.0 mi NW 8.1 mph - N/A Thunderstorm Scattered Clouds
4:10 AM 69.8 °F - 62.6 °F 78% 29.66 in 10.0 mi NW 9.2 mph - N/A Thunderstorm Thunderstorm
4:30 AM 69.8 °F - 62.6 °F 78% 29.66 in 10.0 mi NNW 6.9 mph - N/A   Scattered Clouds
4:50 AM 68.0 °F - 64.4 °F 88% 29.66 in 10.0 mi North 6.9 mph - N/A   Clear
5:10 AM 68.0 °F - 64.4 °F 88% 29.67 in 10.0 mi NNE 5.8 mph - N/A   Clear
5:30 AM 66.2 °F - 64.4 °F 94% 29.66 in 10.0 mi Calm Calm - N/A   Clear
5:50 AM 66.2 °F - 64.4 °F 94% 29.67 in 10.0 mi SE 4.6 mph - N/A   Clear
6:10 AM 66.2 °F - 64.4 °F 94% 29.68 in 10.0 mi SSE 3.5 mph - N/A   Clear
6:30 AM 66.2 °F - 64.4 °F 94% 29.69 in 10.0 mi West 3.5 mph - N/A   Clear
6:50 AM 66.2 °F - 64.4 °F 94% 29.70 in 10.0 mi Calm Calm - N/A   Clear
7:10 AM 69.8 °F - 66.2 °F 88% 29.70 in 10.0 mi SW 3.5 mph - N/A   Clear
7:30 AM 71.6 °F - 64.4 °F 78% 29.70 in 10.0 mi SW 3.5 mph - N/A   Clear
7:50 AM 71.6 °F - 64.4 °F 78% 29.71 in 10.0 mi WSW 6.9 mph - N/A   Scattered Clouds
8:10 AM 73.4 °F - 64.4 °F 73% 29.71 in 10.0 mi SW 5.8 mph - N/A   Scattered Clouds
8:30 AM 73.4 °F - 66.2 °F 78% 29.70 in 10.0 mi West 8.1 mph - N/A   Clear
8:50 AM 75.2 °F - 68.0 °F 78% 29.71 in 10.0 mi West 10.4 mph - N/A   Scattered Clouds
9:10 AM 75.2 °F - 68.0 °F 78% 29.71 in 10.0 mi WNW 13.8 mph - N/A   Scattered Clouds
9:30 AM 75.2 °F - 69.8 °F 83% 29.72 in 10.0 mi West 12.7 mph - N/A   Mostly Cloudy
9:50 AM 75.2 °F - 69.8 °F 83% 29.73 in 10.0 mi West 12.7 mph - N/A   Scattered Clouds
10:10 AM 78.8 °F - 69.8 °F 74% 29.73 in 10.0 mi WNW 13.8 mph 18.4 mph N/A   Scattered Clouds
10:30 AM 78.8 °F - 69.8 °F 74% 29.74 in 10.0 mi NW 12.7 mph 19.6 mph N/A   Scattered Clouds
10:50 AM 78.8 °F - 68.0 °F 69% 29.75 in 10.0 mi WNW 13.8 mph - N/A   Scattered Clouds
11:10 AM 78.8 °F - 68.0 °F 69% 29.75 in 10.0 mi WNW 13.8 mph - N/A   Scattered Clouds
11:30 AM 80.6 °F 83.2 °F 68.0 °F 65% 29.76 in 10.0 mi NW 15.0 mph - N/A   Scattered Clouds
11:49 AM 80.6 °F 83.2 °F 68.0 °F 65% 29.77 in 10.0 mi NW 15.0 mph - N/A   Clear
12:10 PM 80.6 °F 83.2 °F 68.0 °F 65% 29.77 in 10.0 mi NW 15.0 mph 19.6 mph 0.01 in   Scattered Clouds
12:30 PM 82.4 °F 85.4 °F 68.0 °F 62% 29.77 in 10.0 mi WNW 17.3 mph 23.0 mph 0.01 in   Scattered Clouds
12:50 PM 82.4 °F 85.4 °F 68.0 °F 62% 29.77 in 10.0 mi NW 16.1 mph 19.6 mph 0.01 in   Scattered Clouds
1:10 PM 82.4 °F 85.4 °F 68.0 °F 62% 29.77 in 10.0 mi WNW 13.8 mph - N/A   Scattered Clouds
1:30 PM 82.4 °F 84.6 °F 66.2 °F 58% 29.78 in 10.0 mi NW 16.1 mph - N/A   Scattered Clouds
1:50 PM 84.2 °F 86.6 °F 66.2 °F 55% 29.78 in 10.0 mi WNW 16.1 mph 23.0 mph N/A   Scattered Clouds
2:10 PM 84.2 °F 86.6 °F 66.2 °F 55% 29.77 in 10.0 mi NW 16.1 mph - N/A   Clear
2:30 PM 84.2 °F 85.6 °F 64.4 °F 51% 29.78 in 10.0 mi WNW 13.8 mph 24.2 mph N/A   Clear
2:50 PM 84.2 °F 85.6 °F 64.4 °F 51% 29.78 in 10.0 mi NW 17.3 mph 24.2 mph N/A   Scattered Clouds
3:10 PM 84.2 °F 85.0 °F 62.6 °F 48% 29.78 in 10.0 mi NW 19.6 mph 25.3 mph N/A   Scattered Clouds
3:30 PM 84.2 °F 85.0 °F 62.6 °F 48% 29.78 in 10.0 mi NW 16.1 mph - N/A   Clear
3:50 PM 86.0 °F 86.6 °F 62.6 °F 45% 29.77 in 10.0 mi NW 18.4 mph 21.9 mph N/A   Clear
4:10 PM 87.8 °F 88.5 °F 62.6 °F 43% 29.78 in 10.0 mi WNW 18.4 mph 23.0 mph N/A   Clear
4:30 PM 87.8 °F 87.6 °F 60.8 °F 40% 29.78 in 10.0 mi WNW 15.0 mph 25.3 mph N/A   Clear
4:37 PM 87.8 °F 87.6 °F 60.8 °F 40% 29.78 in 10.0 mi NW 16.1 mph - N/A   Clear
5:43 PM 86.0 °F - - N/A% 29.78 in - NW 13.8 mph - N/A   Unknown
5:50 PM 84.2 °F 84.4 °F 60.8 °F 45% 29.78 in 10.0 mi NW 11.5 mph - N/A   Unknown
6:10 PM 84.2 °F 84.4 °F 60.8 °F 45% 29.78 in 10.0 mi NW 11.5 mph - N/A   Clear
6:30 PM 84.2 °F 84.4 °F 60.8 °F 45% 29.78 in 10.0 mi NW 8.1 mph - N/A   Clear
6:50 PM 82.4 °F 83.4 °F 62.6 °F 51% 29.79 in 10.0 mi NNW 6.9 mph - N/A   Clear
7:10 PM 82.4 °F 83.4 °F 62.6 °F 51% 29.80 in 10.0 mi NW 5.8 mph - N/A   Clear
7:30 PM 80.6 °F 82.3 °F 64.4 °F 58% 29.80 in 10.0 mi Calm Calm - N/A   Clear
7:50 PM 80.6 °F 82.7 °F 66.2 °F 61% 29.80 in 10.0 mi Calm Calm - N/A   Clear
8:10 PM 80.6 °F 83.2 °F 68.0 °F 65% 29.80 in 10.0 mi Calm Calm - N/A   Clear
8:30 PM 78.8 °F - 68.0 °F 69% 29.81 in 10.0 mi West 3.5 mph - N/A Rain Light Rain
8:50 PM 78.8 °F - 68.0 °F 69% 29.80 in 10.0 mi Calm Calm - N/A Rain Light Rain
9:10 PM 77.0 °F - 66.2 °F 69% 29.81 in 10.0 mi NW 5.8 mph - N/A   Scattered Clouds
9:30 PM 75.2 °F - 66.2 °F 73% 29.81 in 10.0 mi West 5.8 mph - N/A   Scattered Clouds
9:50 PM 73.4 °F - 64.4 °F 73% 29.81 in 10.0 mi WSW 8.1 mph - N/A   Scattered Clouds
10:10 PM 73.4 °F - 64.4 °F 73% 29.82 in 10.0 mi SW 5.8 mph - N/A   Clear
10:30 PM 71.6 °F - 66.2 °F 83% 29.81 in 10.0 mi SW 4.6 mph - N/A   Clear
10:50 PM 71.6 °F - 66.2 °F 83% 29.81 in 10.0 mi SSW 4.6 mph - N/A   Clear
11:10 PM 71.6 °F - 66.2 °F 83% 29.81 in 10.0 mi SSW 5.8 mph - N/A   Clear
11:30 PM 69.8 °F - 66.2 °F 88% 29.81 in 10.0 mi SW 5.8 mph - N/A   Clear
11:50 PM 71.6 °F - 66.2 °F 83% 29.81 in 10.0 mi SW 5.8 mph - N/A   Clear